This is the latest recevied weather packets stored in our database for station/object W3BRL. If no packets are shown the sender has not sent any weather packets the latest 1 day(s).
| Time | Temp. | Humidity | Pressure | Rain* | Wind** | Luminosity | Snow |
|---|---|---|---|---|---|---|---|
| 1778054280 | 13.33° C | 94% | 1004.4 hPa | 0 mm | 1.79 m/s, 158° | 0 W/m² | - |
| 1778053977 | 13.33° C | 94% | 1004.4 hPa | 0 mm | 3.13 m/s, 137° | 0 W/m² | - |
| 1778053674 | 13.33° C | 94% | 1004.5 hPa | 0 mm | 2.24 m/s, 150° | 0 W/m² | - |
| 1778053371 | 13.33° C | 94% | 1004.4 hPa | 0 mm | 0.89 m/s, 168° | 0 W/m² | - |
| 1778053069 | 13.33° C | 94% | 1004.3 hPa | 0 mm | 1.79 m/s, 156° | 0 W/m² | - |
| 1778052766 | 13.33° C | 94% | 1004.7 hPa | 1.27 mm | 1.79 m/s, 156° | 0 W/m² | - |
| 1778052463 | 13.33° C | 93% | 1004.7 hPa | 1.27 mm | 1.79 m/s, 158° | 0 W/m² | - |
| 1778052160 | 13.33° C | 93% | 1004.8 hPa | 1.27 mm | 2.24 m/s, 159° | 0 W/m² | - |
| 1778051858 | 13.33° C | 93% | 1004.8 hPa | 0 mm | 2.24 m/s, 151° | 0 W/m² | - |
| 1778051556 | 13.33° C | 93% | 1005.1 hPa | 1.78 mm | 0.89 m/s, 176° | 0 W/m² | - |
| 1778051252 | 13.33° C | 92% | 1005.2 hPa | 1.78 mm | 0.89 m/s, 170° | 0 W/m² | - |
| 1778050949 | 13.33° C | 92% | 1005.2 hPa | 0 mm | 1.79 m/s, 160° | 0 W/m² | - |
| 1778050647 | 13.33° C | 92% | 1005.2 hPa | 1.27 mm | 0.89 m/s, 170° | 0 W/m² | - |
| 1778050344 | 13.33° C | 92% | 1005.4 hPa | 1.27 mm | 1.34 m/s, 167° | 0 W/m² | - |
| 1778050041 | 13.89° C | 91% | 1005.5 hPa | 1.78 mm | 1.34 m/s, 165° | 0 W/m² | - |
| 1778049736 | 13.89° C | 90% | 1005.5 hPa | 1.78 mm | 0.89 m/s, 165° | 0 W/m² | - |
| 1778049434 | 13.89° C | 90% | 1005.5 hPa | 1.27 mm | 1.34 m/s, 163° | 0 W/m² | - |
| 1778049131 | 13.89° C | 88% | 1005.6 hPa | 1.27 mm | 1.34 m/s, 154° | 0 W/m² | - |
| 1778048830 | 13.89° C | 87% | 1005.6 hPa | 3.05 mm | 0.89 m/s, 158° | 0 W/m² | - |
| 1778048526 | 13.89° C | 86% | 1005.7 hPa | 1.78 mm | 0.89 m/s, 180° | 0 W/m² | - |
| 1778048222 | 14.44° C | 85% | 1005.8 hPa | 1.78 mm | 1.34 m/s, 190° | 0 W/m² | - |
| 1778047920 | 14.44° C | 84% | 1006 hPa | 1.78 mm | 2.68 m/s, 228° | 0 W/m² | - |
| 1778047619 | 14.44° C | 84% | 1006.1 hPa | 0 mm | 0.89 m/s, 195° | 0 W/m² | - |
| 1778047315 | 14.44° C | 83% | 1006.1 hPa | 0 mm | 1.79 m/s, 199° | 0 W/m² | - |
| 1778047012 | 14.44° C | 82% | 1006 hPa | 1.27 mm | 0.89 m/s, 165° | 0 W/m² | - |
* Rain latest hour (hover to see other rain measurements)
** Current wind speed in m/s (hover to see current wind gust speed)